DW5499 Weather Reports


Display with metric or nautical units.
time (UTC)temp
F
wind
direction
speed
MPH
gust
MPH
rain 1hr
in
rain 24hr
in
rain mn
in
humidity
%
barometer
mb
20260906173027 96 169 3.0 7.0 0.00 0.00 0.00 53 1013.9
20260906171519 95 148 2.0 6.0 0.00 0.00 0.00 55 1014.1
20260906170020 94 126 2.0 7.0 0.00 0.00 0.00 57 1014.4
20260906164513 93 125 2.0 5.0 0.00 0.00 0.00 58 1014.6
20260906163011 92 123 2.0 6.0 0.00 0.00 0.00 60 1014.8
20260906161512 91 141 4.0 6.0 0.00 0.00 0.00 60 1014.8
20260906160009 91 119 2.0 5.0 0.00 0.00 0.00 64 1014.8
20260906154502 88 174 1.0 4.0 0.00 0.00 0.00 68 1014.6
20260906153057 87 80 2.0 5.0 0.00 0.00 0.00 70 1014.5
20260906151558 86 77 4.0 7.0 0.00 0.00 0.00 70 1014.5
20260906150108 85 85 3.0 5.0 0.00 0.00 0.00 72 1014.5
20260906144550 84 86 1.0 6.0 0.00 0.00 0.00 74 1014.5
20260906143051 82 85 2.0 6.0 0.00 0.00 0.00 76 1014.7
20260906141548 81 78 2.0 5.0 0.00 0.00 0.00 77 1014.9
20260906140049 80 4 1.0 4.0 0.00 0.00 0.00 78 1014.7
20260906134542 80 357 1.0 5.0 0.00 0.00 0.00 79 1014.7
20260906133105 79 12 2.0 5.0 0.00 0.00 0.00 80 1014.6
20260906131538 78 37 2.0 4.0 0.00 0.00 0.00 83 1014.5
20260906130036 77 15 1.0 4.0 0.00 0.00 0.00 86 1014.3
20260906124535 76 6 1.0 3.0 0.00 0.00 0.00 88 1014.2
20260906123035 75 245 0.0 1.0 0.00 0.00 0.00 89 1014.1
20260906121531 76 245 0.0 3.0 0.00 0.00 0.00 89 1013.8
20260906120032 75 245 0.0 2.0 0.00 0.00 0.00 89 1013.5
20260906114541 75 245 0.0 3.0 0.00 0.00 0.00 88 1013.4
20260906113026 76 265 0.0 3.0 0.00 0.00 0.00 89 1013.3
20260906111524 75 265 0.0 2.0 0.00 0.00 0.00 88 1013.3
20260906110024 75 265 0.0 3.0 0.00 0.00 0.00 87 1013.2
20260906104524 76 350 0.0 2.0 0.00 0.00 0.00 87 1013.0
20260906103020 76 350 0.0 0.0 0.00 0.00 0.00 87 1013.1
20260906101523 76 350 1.0 2.0 0.00 0.00 0.00 87 1013.0
20260906100024 76 335 2.0 4.0 0.00 0.00 0.00 87 1013.1
20260906094518 77 247 0.0 3.0 0.00 0.00 0.00 86 1013.1
20260906093017 77 247 0.0 2.0 0.00 0.00 0.00 86 1013.0
20260906091522 77 247 0.0 2.0 0.00 0.00 0.00 86 1012.8
20260906090016 76 247 0.0 0.0 0.00 0.00 0.00 85 1012.7
20260906084513 77 247 2.0 4.0 0.00 0.00 0.00 84 1012.6
20260906083012 77 247 0.0 2.0 0.00 0.00 0.00 84 1012.5
20260906081517 77 247 0.0 2.0 0.00 0.00 0.00 83 1012.4
20260906080013 78 247 0.0 1.0 0.00 0.00 0.00 84 1012.3
20260906074509 78 247 0.0 1.0 0.00 0.00 0.00 84 1012.4
20260906073008 78 247 0.0 2.0 0.00 0.00 0.00 84 1012.4
20260906071506 78 247 0.0 3.0 0.00 0.00 0.00 83 1012.5
20260906070004 79 230 1.0 2.0 0.00 0.00 0.00 83 1012.6
20260906064501 79 39 0.0 1.0 0.00 0.00 0.00 82 1012.6
20260906063059 79 39 0.0 0.0 0.00 0.00 0.00 83 1012.8
20260906061600 80 39 0.0 1.0 0.00 0.00 0.00 83 1012.9
20260906060056 80 39 0.0 1.0 0.00 0.00 0.00 82 1012.9
20260906054603 80 39 1.0 4.0 0.00 0.00 0.00 81 1012.9
20260906053059 81 202 0.0 0.0 0.00 0.00 0.00 80 1012.9
20260906051608 81 202 0.0 1.0 0.00 0.00 0.00 80 1012.9
20260906050050 81 202 0.0 0.0 0.00 0.00 0.00 80 1012.8
20260906044554 81 202 0.0 1.0 0.00 0.00 0.00 80 1012.8
20260906043049 82 202 0.0 2.0 0.00 0.00 0.00 79 1012.7
20260906041552 82 202 0.0 2.0 0.00 0.00 0.00 78 1012.6
20260906040124 82 202 1.0 2.0 0.00 0.00 0.00 78 1012.4
20260906034600 83 206 0.0 2.0 0.00 0.00 0.00 79 1012.4
20260906033102 83 206 0.0 2.0 0.00 0.00 0.00 79 1012.3
20260906031546 83 231 1.0 4.0 0.00 0.00 0.00 77 1012.2
20260906030046 84 239 2.0 3.0 0.00 0.00 0.00 76 1011.9
20260906024552 85 200 1.0 2.0 0.00 0.00 0.00 76 1011.8
20260906023050 86 200 0.0 1.0 0.00 0.00 0.00 75 1011.7
20260906021545 87 236 0.0 2.0 0.00 0.00 0.00 74 1011.5
20260906020045 88 353 0.0 2.0 0.00 0.00 0.00 71 1011.2
20260906014544 89 353 0.0 1.0 0.00 0.00 0.00 66 1011.0
20260906013044 89 353 0.0 2.0 0.00 0.00 0.00 64 1011.0
20260906011543 90 353 0.0 2.0 0.00 0.00 0.00 63 1010.9
20260906010044 90 51 0.0 3.0 0.00 0.00 0.00 62 1010.8
20260906004543 91 31 2.0 4.0 0.00 0.00 0.00 62 1010.8
20260906003042 92 350 2.0 5.0 0.00 0.00 0.00 60 1010.9
20260906001542 93 41 2.0 4.0 0.00 0.00 0.00 56 1010.8
20260906000042 94 8 2.0 4.0 0.00 0.00 0.00 54 1010.8
20260905234544 94 340 1.0 3.0 0.00 0.00 0.00 54 1010.7
20260905233047 95 49 1.0 3.0 0.00 0.00 0.00 51 1010.6
20260905231540 95 41 2.0 4.0 0.00 0.00 0.00 50 1010.6
20260905230039 95 45 2.0 4.0 0.00 0.00 0.00 50 1010.6
20260905224608 96 69 2.0 4.0 0.00 0.00 0.00 49 1010.6
20260905223044 96 37 2.0 5.0 0.00 0.00 0.00 48 1010.6
20260905221537 96 45 3.0 5.0 0.00 0.00 0.00 48 1010.6
20260905220037 97 49 4.0 8.0 0.00 0.00 0.00 45 1010.7
20260905214543 97 89 3.0 7.0 0.00 0.00 0.00 44 1010.8
20260905213033 97 35 4.0 7.0 0.00 0.00 0.00 45 1011.1
20260905211541 98 64 2.0 6.0 0.00 0.00 0.00 46 1011.3
20260905210040 97 18 5.0 7.0 0.00 0.00 0.00 46 1011.7
20260905204528 97 53 4.0 8.0 0.00 0.00 0.00 46 1011.8
20260905203028 97 345 2.0 8.0 0.00 0.00 0.00 47 1011.9
20260905201527 96 67 3.0 8.0 0.00 0.00 0.00 48 1012.0
20260905200028 96 26 6.0 8.0 0.00 0.00 0.00 48 1012.2
20260905194525 96 6 3.0 7.0 0.00 0.00 0.00 48 1012.5
20260905193024 96 76 2.0 6.0 0.00 0.00 0.00 47 1012.7
20260905191524 95 37 2.0 6.0 0.00 0.00 0.00 51 1012.8
20260905190024 96 71 3.0 6.0 0.00 0.00 0.00 51 1012.9
20260905184529 97 134 3.0 5.0 0.00 0.00 0.00 50 1012.9
20260905183024 97 157 2.0 6.0 0.00 0.00 0.00 48 1013.1
20260905181521 96 111 2.0 6.0 0.00 0.00 0.00 51 1013.2
20260905180017 95 184 2.0 6.0 0.00 0.00 0.00 56 1013.3
20260905174515 94 117 2.0 6.0 0.00 0.00 0.00 56 1013.6